ICT,Max TemperatureF,Mean TemperatureF,Min TemperatureF,Max Dew PointF,MeanDew PointF,Min DewpointF,Max Humidity, Mean Humidity, Min Humidity, Max Sea Level PressureIn, Mean Sea Level PressureIn, Min Sea Level PressureIn, Max VisibilityMiles, Mean VisibilityMiles, Min VisibilityMiles, Max Wind SpeedMPH, Mean Wind SpeedMPH, Max Gust SpeedMPH,PrecipitationIn, CloudCover, Events, WindDirDegrees
2013-7-1,87,80,74,79,75,72,94,81,66,29.83,29.77,29.70,6,4,3,17,8,,0.35,5,Rain,286
2013-7-2,87,80,74,78,74,72,97,87,73,29.86,29.78,29.73,6,4,0,22,7,34,3.43,6,Rain-Thunderstorm,274
2013-7-3,82,79,76,78,74,73,94,86,74,29.83,29.79,29.74,5,4,1,23,5,36,1.50,6,Rain,248
2013-7-4,80,76,72,75,72,70,99,82,70,29.86,29.79,29.72,5,4,1,31,16,39,0.98,6,Rain,267
2013-7-5,86,82,77,78,74,72,94,80,66,29.83,29.76,29.70,6,6,4,17,7,,0.16,6,Rain,273
2013-7-6,84,79,74,81,74,72,98,85,74,29.86,29.78,29.73,5,5,4,12,2,,0.01,6,,284
2013-7-7,85,79,73,79,74,72,96,83,66,29.86,29.81,29.75,6,4,3,9,2,,0.08,6,Rain,301
2013-7-8,85,80,74,79,74,72,95,85,70,29.89,29.83,29.77,6,5,1,12,2,,0.28,6,Rain,254
2013-7-9,88,80,73,77,73,70,94,80,54,29.86,29.79,29.72,6,6,4,12,2,,0.04,6,Rain,271
2013-7-10,89,80,71,76,74,72,95,82,51,29.83,29.78,29.73,6,6,3,17,2,,0.16,6,Rain,244
2013-7-11,88,80,73,75,72,68,96,79,47,29.89,29.82,29.76,6,6,4,12,2,,0.00,6,Rain,153
2013-7-12,87,80,73,77,74,72,95,79,62,29.89,29.83,29.74,6,6,6,15,3,,0.00,4,Rain,287
2013-7-13,87,82,78,77,75,72,84,75,66,29.86,29.80,29.74,6,5,4,21,10,,0.00,6,Rain,282
2013-7-14,85,80,74,78,76,73,89,78,69,29.83,29.77,29.70,6,4,4,25,12,,0.12,6,Rain,267
2013-7-15,87,84,80,76,74,72,82,72,60,29.83,29.79,29.73,5,5,4,17,10,,0.00,6,,258
2013-7-16,87,81,75,78,74,72,94,83,68,29.89,29.83,29.78,6,5,3,15,5,,0.24,6,Rain,296
2013-7-17,89,84,80,78,75,73,84,74,66,29.86,29.82,29.75,6,5,4,17,9,,0.00,6,,270
2013-7-18,89,82,75,76,74,72,89,75,64,29.86,29.78,29.71,6,6,6,17,10,,0.00,6,,268
2013-7-19,89,84,80,77,75,73,84,72,61,29.86,29.79,29.73,6,6,5,15,9,,0.00,6,,256
2013-7-20,88,84,80,78,74,72,79,70,62,29.83,29.79,29.73,6,5,5,15,10,,0.00,6,,261
2013-7-21,88,84,79,76,74,73,79,74,68,29.80,29.75,29.68,6,6,5,15,9,22,0.00,6,,246
2013-7-22,87,80,73,76,74,72,100,76,62,29.83,29.74,29.68,6,4,1,17,8,34,1.93,6,Rain,253
2013-7-23,87,80,74,77,74,72,100,83,68,29.83,29.78,29.74,6,4,1,23,9,36,0.67,6,Rain,284
2013-7-24,86,82,77,76,74,72,89,81,66,29.89,29.83,29.73,6,5,2,23,7,40,0.20,6,Rain,271
2013-7-25,87,79,71,77,74,70,94,81,66,29.86,29.83,29.75,6,6,3,16,4,20,0.08,5,Rain,272
2013-7-26,87,80,72,77,75,73,94,77,64,29.89,29.83,29.76,6,6,6,14,4,,0.00,6,,263
2013-7-27,88,80,71,76,74,72,94,79,60,29.89,29.85,29.78,6,6,6,15,5,,0.00,6,,274
2013-7-28,87,82,77,76,74,73,94,77,63,29.89,29.85,29.81,6,6,6,22,6,,0.00,6,,278
2013-7-29,87,82,78,78,75,73,89,75,66,29.86,29.82,29.76,6,6,6,17,9,,0.00,6,,264
2013-7-30,87,82,77,77,75,73,79,75,66,29.83,29.78,29.71,6,5,4,14,8,,0.00,6,Rain,246
2013-7-31,88,82,75,79,74,72,94,81,66,29.83,29.77,29.69,5,4,1,29,9,40,1.97,6,Rain-Thunderstorm,257